sat.trackr.live / text

‹ back to catalog

STARLINK-34102

NORAD 63806 · 2025-092C

PAYLOAD ACTIVE UNKNOWN

§ Identity

Operator
Country
US
Launch date
2025-05-04
Launch site
AFETR
Launch vehicle
Mass (kg)
RCS (m²)

Purposes: comms

External: N2YO · Heavens-Above · Gunter

§ Orbital elements

Epoch: 2026-05-25T05:03:33.112224Z

Period
94.27 min
Inclination
43.0009°
Eccentricity
0.0001411
Mean motion
15.27594596 rev/d
Perigee alt
482.0 km
Apogee alt
484.0 km
Semi-major
6,861.1 km
B*
5.8775e-4
RAAN
100.7338°
Arg perigee
262.7648°
Mean anomaly
97.3043°
Rev number
6,036

§ Raw data

STARLINK-341021 63806U 25092C   26145.21079991  .00015954  00000+0  58775-3 0  99952 63806  43.0009 100.7338 0001411 262.7648  97.3043 15.27594596 60369

JSON: /api/v1/satellites/63806 · /tle

For live sub-satellite position, see the globe view (requires WebGL).

§ Visibility from observer

Set your observer location to see the next 7 days of passes ≥ 10°. The values pass through the URL so the page stays shareable.

No JS? Fill the form by hand. The geolocation button needs JavaScript.